This is the latest recevied weather packets stored in our database for station/object IZ1UQG-N2. If no packets are shown the sender has not sent any weather packets the latest 1 day(s).
| Time | Temp. | Humidity | Pressure | Rain* | Wind** | Luminosity | Snow |
|---|---|---|---|---|---|---|---|
| 1777984490 | 12.22° C | 89% | 1012.1 hPa | 0 mm | 0.89 m/s, 358° | 81 W/m² | - |
| 1777984430 | 12.22° C | 89% | 1012.1 hPa | 0 mm | 0.89 m/s, 356° | 81 W/m² | - |
| 1777984388 | 12.22° C | 89% | 1012.1 hPa | 0 mm | 0.89 m/s, 356° | 81 W/m² | - |
| 1777984370 | 12.22° C | 88% | 1011.9 hPa | 0 mm | 1.34 m/s, 354° | 83 W/m² | - |
| 1777984310 | 12.22° C | 88% | 1012 hPa | 0 mm | 1.34 m/s, 356° | 84 W/m² | - |
| 1777984250 | 12.22° C | 88% | 1011.9 hPa | 0 mm | 1.34 m/s, 356° | 88 W/m² | - |
| 1777984207 | 12.22° C | 88% | 1011.9 hPa | 0 mm | 1.34 m/s, 356° | 88 W/m² | - |
| 1777984192 | 12.22° C | 88% | 1011.9 hPa | 0 mm | 1.34 m/s, 356° | 93 W/m² | - |
| 1777984130 | 12.22° C | 89% | 1011.9 hPa | 0 mm | 1.34 m/s, 355° | 93 W/m² | - |
| 1777984070 | 12.22° C | 88% | 1011.9 hPa | 0 mm | 1.34 m/s, 356° | 97 W/m² | - |
| 1777984028 | 12.22° C | 88% | 1011.9 hPa | 0 mm | 1.34 m/s, 356° | 97 W/m² | - |
| 1777984010 | 12.22° C | 88% | 1011.9 hPa | 0 mm | 1.34 m/s, 355° | 97 W/m² | - |
| 1777983950 | 12.22° C | 88% | 1012 hPa | 0 mm | 1.34 m/s, 355° | 97 W/m² | - |
| 1777983890 | 12.22° C | 88% | 1012 hPa | 0 mm | 1.34 m/s, 355° | 97 W/m² | - |
| 1777983847 | 12.22° C | 88% | 1012 hPa | 0 mm | 1.34 m/s, 355° | 97 W/m² | - |
| 1777983829 | 12.22° C | 88% | 1012 hPa | 0 mm | 1.34 m/s, 357° | 97 W/m² | - |
| 1777983769 | 12.22° C | 88% | 1012 hPa | 0 mm | 1.34 m/s, 1° | 98 W/m² | - |
| 1777983709 | 12.22° C | 88% | 1012.1 hPa | 0 mm | 1.34 m/s, 359° | 102 W/m² | - |
| 1777983669 | 12.22° C | 88% | 1012.1 hPa | 0 mm | 1.34 m/s, 359° | 102 W/m² | - |
| 1777983651 | 12.22° C | 88% | 1012.1 hPa | 0 mm | 1.34 m/s, 359° | 104 W/m² | - |
| 1777983591 | 12.22° C | 88% | 1012 hPa | 0 mm | 1.34 m/s, 358° | 104 W/m² | - |
| 1777983529 | 12.22° C | 88% | 1012 hPa | 0 mm | 1.34 m/s, 358° | 104 W/m² | - |
| 1777983488 | 12.22° C | 88% | 1012 hPa | 0 mm | 1.34 m/s, 358° | 104 W/m² | - |
| 1777983470 | 12.22° C | 88% | 1012.1 hPa | 0 mm | 1.34 m/s, 357° | 102 W/m² | - |
| 1777983410 | 12.22° C | 88% | 1012.1 hPa | 0 mm | 1.34 m/s, 357° | 100 W/m² | - |
* Rain latest hour (hover to see other rain measurements)
** Current wind speed in m/s (hover to see current wind gust speed)